Regional Weather Roundup
Issued by NWS

Home | Current Version | Previous Version | Text Only | Print | Product List | Glossary On
Versions: 1 2 3 4 5 6 7 8 9 10 11 12 13 14 15 16 17 18 19 20 21 22 23 24 25 26 27 28 29 30 31 32 33 34 35 36 37 38 39 40 41 42 43 44 45 46 47 48 49 50
000
ASUS43 KMKX 142300
RWRWI

WISCONSIN REGIONAL WEATHER ROUNDUP
NATIONAL WEATHER SERVICE MILWAUKEE/SULLIVAN WI
500 PM CST SUN FEB 14 2016

NOTE: "FAIR" INDICATES FEW OR NO CLOUDS BELOW 12,000 FEET WITH NO
SIGNIFICANT WEATHER AND/OR OBSTRUCTIONS TO VISIBILITY.

WIZ001-002-006>008-014>016-023>028-150000-
NORTHWEST WISCONSIN

CITY           SKY/WX    TMP DP  RH WIND       PRES   REMARKS
SUPERIOR ARPT  CLOUDY    18   8  63 S12       29.94F WCI   6
ASHLAND        CLOUDY    20   7  57 S10       29.95F WCI   9
HAYWARD        CLOUDY    17   6  62 S10G21    29.92F WCI   5
SIREN          FLURRIES  18   8  67 S16       29.93F WCI   3
CUMBERLAND     FLURRIES  16   9  73 SE14      29.92F WCI   1
RICE LAKE      CLOUDY    17   9  71 SE15      29.96S WCI   2
CHETEK         CLOUDY    17   9  69 SE14      29.96S WCI   3
LADYSMITH      CLOUDY    18  10  70 S9G17     29.97F WCI   6
EAU CLAIRE     NOT AVBL
MENOMONIE      FLURRIES  19  10  68 SE9       29.97S WCI   9
NEW RICHMOND   LGT SNOW  18  10  71 S9        29.94S WCI   7
OSCEOLA        LGT SNOW  19  12  76 SE10      29.96S WCI   7
$$

WIZ003>005-009-010-017-018-150000-
NORTH CENTRAL WISCONSIN

CITY           SKY/WX    TMP DP  RH WIND       PRES   REMARKS
MANITOWISH WTR CLOUDY    19   4  53 S14G20    29.93F WCI   5
ARBOR VITAE    CLOUDY    21   5  51 S12G18    29.94F WCI   9
WOODRUFF       CLOUDY    21   5  51 S12G18    29.94F WCI   9
RHINELANDER    CLOUDY    18   4  54 S13       29.96F WCI   5
EAGLE RIVER    CLOUDY    19   2  48 S10       29.96S WCI   7
LAND O LAKES   CLOUDY    20   1  42 S14G23    29.96S WCI   7
PHILLIPS       MOCLDY    16   6  63 S12G17    29.94F WCI   3
TOMAHAWK       CLOUDY    17   3  55 SE7       29.97F WCI   7
MEDFORD        FLURRIES  14   8  76 SE9       29.96S WCI   2
MERRILL        MOCLDY    19   7  58 S7G17     30.00F WCI  10
$$

WIZ029-030-035-036-043>047-150000-
CENTRAL WISCONSIN

CITY           SKY/WX    TMP DP  RH WIND       PRES   REMARKS
WAUSAU         LGT SNOW  18  10  71 SE10      30.00F WCI   6
MOSINEE        LGT SNOW  16  12  86 SE10      30.01F WCI   3
MARSHFIELD     LGT SNOW  16   8  71 SE12      29.98F WCI   3
STEVENS POINT  LGT SNOW  16  11  80 SE8G16    30.02F WCI   5
WAUPACA        LGT SNOW  21  15  77 SE10      30.06F WCI  10
WAUTOMA        MIX PCPN  18  12  79 SE7       30.06F WCI   8
WISC RAPIDS    LGT SNOW  16   9  74 SE9       30.03F WCI   4
CAMP DOUGLAS   LGT SNOW  16  16 100 SE9       30.01S FOG     WCI   4
$$

WIZ011>013-019>022-031-037>040-048>050-150000-
NORTHEAST WISCONSIN

CITY           SKY/WX    TMP DP  RH WIND       PRES   REMARKS
ANTIGO         FLURRIES  17  10  76 S15       30.00F WCI   2
SHAWANO        FLURRIES  22  14  69 SE13      30.09F WCI  10
OCONTO         CLOUDY    19  13  76 SE12G18   30.12F WCI   7
STURGEON BAY   CLOUDY    19   9  63 S13       30.14F WCI   7
GREEN BAY      CLOUDY    19  14  81 SE12      30.09F WCI   7
MANITOWOC      NOT AVBL
APPLETON       LGT SNOW  19  14  79 E8        30.05F WCI   9
CLINTONVILLE   LGT SNOW  21  14  73 SE13      30.06F WCI   9
OSHKOSH        LGT SNOW  20  13  74 SE10      30.06S WCI   9
$$

WIZ032>034-041-042-053>061-150000-
SOUTHWEST WISCONSIN

CITY           SKY/WX    TMP DP  RH WIND       PRES   REMARKS
LA CROSSE      CLOUDY    18   9  68 SE13      30.00S WCI   5
SPARTA         CLOUDY    18  10  70 SE12      30.01S WCI   5
VIROQUA        CLOUDY    16  11  80 SE13      29.96R WCI   2
BOSCOBEL       LGT SNOW  19  12  74 SE7G16    30.02S WCI  10
PRAIRIE DU CHI LGT SNOW  19  12  72 E12       30.00R WCI   7
PLATTEVILLE    CLOUDY    17  13  84 SE14      29.98S WCI   3
$$

WIZ056-057-062-063-064-067-068-150000-
SOUTH CENTRAL WISCONSIN

CITY           SKY/WX    TMP DP  RH WIND       PRES   REMARKS
REEDSBURG      LGT SNOW  15  10  81 SE7       30.02F WCI   5
BARABOO/DELLS  LGT SNOW  15  10  80 SE10G18   30.02S WCI   3
LONE ROCK      NOT AVBL
MINERAL POINT  LGT SNOW  19  14  79 SE15      29.98S WCI   5
MADISON        LGT SNOW  16  11  80 SE13      30.03F WCI   2
MIDDLETON      CLOUDY    18  12  79 SE13      30.03F WCI   5
WATERTOWN      FLURRIES  17  14  86 SE9       30.05S WCI   6
MONROE         LGT SNOW  18  14  86 E8G16     30.00S WCI   7
JANESVILLE     LGT SNOW  18  14  86 SE14G20   30.04F WCI   4
$$

WIZ051-052-058>065-066-070>072-150000-
SOUTHEAST WISCONSIN

CITY           SKY/WX    TMP DP  RH WIND       PRES   REMARKS
MILWAUKEE      LGT SNOW  21  17  84 SE16      30.08F FOG     WCI   7
WAUKESHA       LGT SNOW  18  14  86 SE10      30.06F FOG     WCI   6
MILWAUKEE/TIMM LGT SNOW  19  16  86 SE9       30.08F WCI   9
RACINE         LGT SNOW  22  16  78 SE15      30.09F WCI   9
BURLINGTON     LGT SNOW  18  13  82 SE10      30.06F WCI   6
KENOSHA        LGT SNOW  20  15  81 SE14      30.07F VSB 1   WCI   7
FOND DU LAC    FLURRIES  20  13  74 S13       30.06S WCI   7
SHEBOYGAN      LGT SNOW  20  15  81 SE14G21   30.09S WCI   7
WEST BEND      LGT SNOW  21  18  86 SE10      30.06F WCI  10
JUNEAU         LGT SNOW  17  13  86 SE15      30.06S WCI   2
$$

LSZ147-162-150000-
LAKE SUPERIOR

STATION/POSITION TIME  TEMP    WIND        PRES    WAVE
                       AIR SEA DIR/SP/G            HT/PER
                 (UTC) (F)     (DEG/KT/KT) (MB)    (FT/S)
DEVILS ISLAND    2200   20     170/  5/  6 1016.0F
SAXON HARBOR     2240                      1014.2F
$$

LMZ867-665-643>646-150000-
LAKE MICHIGAN

STATION/POSITION TIME  TEMP    WIND        PRES    WAVE
                       AIR SEA DIR/SP/G            HT/PER
                 (UTC) (F)     (DEG/KT/KT) (MB)    (FT/S)
CHAMBERS ISLAND  2200   20     140/  5/ 12 1021.0F
KEWAUNEE LAKESHO 2200   21                 1020.0F
SHEBOYGAN LAKESH 2200   22     140/ 24/ 28 1021.2F
PORT WASHINGTON  2208   24     140/ 21/ 25 1019.6F
MILWAUKEE LAKESH 2210   22     140/ 21/ 25   N/A
KENOSHA   LAKESH 2200   22     150/ 22/ 26 1019.3F
$$

TC  - TEMPERATURE IN CELSIUS
VSB - VISIBILITY IN STATUTE MILES
WCI - WIND CHILL INDEX
HX  - HEAT INDEX




USA.gov is the U.S. government's official web portal to all federal, state and local government web resources and services.